{"data":{"norad_id":59313,"epoch":"2026-09-21T22:08:52.614816Z","epoch_age_seconds":39265,"freshness":"FRESH","line1":"1 59313U 24056T   26264.92283119  .00552363  00000+0  40586-2 0  9991","line2":"2 59313  42.9684 177.3348 0025043 204.5041 155.4637 15.70318778141452","mean_motion":15.70318778,"eccentricity":0.0025043,"inclination_deg":42.9684,"raan_deg":177.3348,"arg_perigee_deg":204.5041,"mean_anomaly_deg":155.4637,"bstar":0.0040586,"rev_number":14145,"period_min":91.701125922599,"perigee_km":341.11595275933,"apogee_km":374.85449452867,"semimajor_km":6736.122223644,"source":"CELESTRAK","updated_at":"2026-09-22T09:00:48.896354Z"}}